Total_Precipitation_Accumulation
0.00 0.00 0.01 0.01 0.01 0.02 0.04 0.08 0.17 0.19 0.17 0.23 0.33 0.54 0.74 0.83 0.98 1.28 1.48 1.47 1.45 1.75 2.24 2.60 2.86 3.05 3.40 3.61 3.79 3.78 3.99 4.38 4.70 4.54 4.21 4.00 3.72 3.48 3.24 2.97 2.86 2.89 2.86 3.05
0.00 0.01 0.01 0.01 0.01 0.02 0.03 0.07 0.16 0.20 0.19 0.30 0.44 0.67 0.84 1.04 1.27 1.36 1.28 1.28 1.42 1.80 2.30 2.66 2.94 3.10 3.37 3.65 4.07 4.20 4.39 4.73 4.85 4.70 4.56 4.37 4.21 3.82 3.67 3.50 3.29 2.93 2.73 2.84
0.01 0.01 0.01 0.01 0.02 0.02 0.05 0.08 0.15 0.16 0.24 0.40 0.51 0.94 1.12 1.28 1.40 1.39 1.32 1.51 1.52 1.60 2.03 2.31 2.43 2.62 2.81 2.95 3.21 3.50 3.98 4.48 4.66 4.72 4.63 4.56 4.57 4.07 3.78 3.61 3.39 2.99 2.72 2.65
0.01 0.01 0.01 0.02 0.02 0.02 0.07 0.07 0.08 0.12 0.23 0.51 0.58 1.16 1.40 1.60 1.72 1.58 1.51 1.43 1.39 1.63 1.98 1.99 1.83 1.98 2.24 2.24 2.56 2.98 3.42 3.77 3.99 4.08 4.07 4.08 4.03 3.90 3.80 3.64 3.23 2.95 2.70 2.61
0.02 0.02 0.02 0.04 0.03 0.03 0.05 0.06 0.09 0.14 0.25 0.47 0.51 0.87 1.41 1.80 1.98 1.60 1.49 1.36 1.41 1.64 1.68 1.63 1.64 1.75 1.92 2.09 2.41 2.72 3.04 3.33 3.48 3.57 3.63 3.71 3.60 3.60 3.49 3.29 3.05 2.80 2.62 2.47
0.02 0.04 0.04 0.04 0.03 0.05 0.05 0.09 0.17 0.25 0.45 0.80 0.66 0.78 1.32 1.73 1.59 1.39 1.32 1.11 1.21 1.40 1.48 1.53 1.62 1.75 1.87 2.18 2.54 2.83 3.05 3.27 3.34 3.12 3.01 3.00 3.03 3.10 3.04 2.85 2.65 2.42 2.29 2.14
0.13 0.10 0.07 0.06 0.06 0.07 0.09 0.18 0.61 1.02 1.34 1.22 0.76 0.87 1.47 1.38 1.04 0.97 1.06 1.04 1.02 1.07 1.21 1.33 1.52 1.72 1.90 2.02 2.12 2.56 2.98 3.14 3.05 2.79 2.60 2.51 2.61 2.72 2.64 2.49 2.41 2.28 2.07 1.91
0.28 0.25 0.13 0.09 0.12 0.14 0.14 0.25 0.71 1.00 1.07 1.06 0.83 1.25 1.77 1.37 0.92 0.78 0.89 0.88 0.78 0.73 0.70 0.79 0.98 1.09 1.25 1.30 1.32 1.50 1.77 2.01 2.09 1.98 1.98 2.03 2.06 2.13 2.11 2.26 2.12 2.09 1.97 1.81
0.17 0.15 0.11 0.12 0.18 0.18 0.24 0.29 0.31 0.52 0.72 1.07 1.09 1.31 1.41 1.18 0.92 0.88 0.96 0.87 0.69 0.65 0.60 0.67 0.78 0.83 0.93 0.97 1.01 1.15 1.40 1.64 1.68 1.68 1.71 1.76 1.77 1.79 1.81 1.86 1.81 1.78 1.80 1.71
0.11 0.11 0.11 0.11 0.15 0.18 0.21 0.29 0.44 0.70 0.94 1.09 1.16 1.51 1.67 1.50 1.25 1.09 1.05 0.92 0.71 0.58 0.56 0.63 0.74 0.78 0.89 1.01 1.15 1.27 1.38 1.49 1.49 1.49 1.49 1.44 1.52 1.53 1.56 1.55 1.48 1.49 1.57 1.58
0.08 0.10 0.13 0.19 0.22 0.22 0.23 0.31 0.47 0.65 0.71 0.94 1.30 1.45 1.23 1.19 1.17 1.25 1.20 1.00 0.76 0.58 0.53 0.59 0.71 0.77 0.85 0.97 1.11 1.26 1.35 1.44 1.42 1.37 1.43 1.49 1.49 1.51 1.49 1.45 1.38 1.44 1.50 1.53
0.09 0.12 0.17 0.25 0.22 0.16 0.22 0.33 0.48 0.73 0.78 0.82 0.99 1.14 0.76 0.79 0.92 1.00 0.99 0.79 0.62 0.55 0.53 0.61 0.73 0.78 0.91 0.99 1.06 1.09 1.18 1.32 1.33 1.34 1.46 1.65 1.62 1.61 1.58 1.44 1.37 1.43 1.44 1.46
0.16 0.16 0.28 0.55 0.51 0.27 0.26 0.25 0.36 0.50 0.62 0.71 0.94 1.12 0.73 0.75 0.91 0.90 0.85 0.72 0.68 0.65 0.64 0.71 0.76 0.76 0.87 0.98 1.02 1.04 1.11 1.23 1.40 1.43 1.49 1.63 1.63 1.60 1.50 1.40 1.37 1.38 1.39 1.44
0.14 0.15 0.26 0.64 0.68 0.45 0.32 0.28 0.32 0.44 0.55 0.53 0.57 0.79 0.81 0.80 0.92 0.91 0.88 0.82 0.83 0.74 0.75 0.86 0.93 0.86 0.86 0.89 0.90 0.93 1.05 1.19 1.22 1.23 1.29 1.38 1.33 1.31 1.33 1.34 1.32 1.31 1.37 1.42
0.14 0.18 0.18 0.28 0.39 0.42 0.39 0.31 0.28 0.30 0.34 0.46 0.53 0.69 0.88 0.91 0.93 0.82 0.77 0.80 0.81 0.77 0.74 0.81 0.74 0.69 0.69 0.70 0.73 0.77 0.81 0.93 1.06 1.16 1.21 1.30 1.35 1.34 1.35 1.30 1.24 1.32 1.39 1.36
0.20 0.25 0.23 0.31 0.39 0.44 0.42 0.37 0.31 0.28 0.27 0.34 0.45 0.63 0.70 0.78 0.83 0.85 0.82 0.84 0.78 0.69 0.71 0.65 0.53 0.47 0.50 0.56 0.61 0.66 0.69 0.77 0.90 0.94 1.03 1.24 1.38 1.40 1.37 1.27 1.27 1.34 1.41 1.48
0.32 0.36 0.35 0.40 0.48 0.59 0.61 0.38 0.35 0.36 0.32 0.44 0.70 0.79 0.79 0.93 0.94 0.85 0.79 0.76 0.67 0.59 0.58 0.55 0.46 0.44 0.49 0.55 0.60 0.66 0.73 0.78 0.85 0.90 0.98 1.06 1.18 1.25 1.20 1.13 1.15 1.22 1.32 1.46
0.38 0.54 0.55 0.53 0.70 0.89 0.72 0.42 0.36 0.40 0.39 0.41 0.55 0.65 0.71 0.93 0.98 0.77 0.64 0.61 0.58 0.57 0.53 0.53 0.53 0.54 0.64 0.63 0.68 0.81 0.94 0.96 0.96 1.05 1.10 1.08 1.13 1.23 1.26 1.21 1.22 1.33 1.42 1.46
0.33 0.52 0.60 0.66 0.82 0.85 0.72 0.58 0.51 0.56 0.63 0.47 0.51 0.58 0.64 0.66 0.75 0.81 0.63 0.63 0.65 0.56 0.56 0.55 0.59 0.66 0.78 0.78 0.81 0.94 0.99 1.04 1.07 1.12 1.19 1.22 1.26 1.35 1.39 1.39 1.46 1.57 1.65 1.57
0.42 0.54 0.70 0.68 0.87 1.03 0.84 0.67 0.59 0.69 1.12 0.74 0.57 0.52 0.60 0.64 0.95 1.01 0.73 0.63 0.64 0.62 0.68 0.73 0.71 0.77 0.84 0.91 1.05 1.15 1.17 1.24 1.29 1.25 1.25 1.33 1.45 1.53 1.59 1.75 1.97 2.05 2.05 1.94
0.83 0.86 0.85 0.83 0.91 0.94 0.80 0.65 0.66 1.13 1.39 0.87 0.68 0.58 0.61 0.67 0.80 0.85 0.72 0.65 0.65 0.70 0.81 0.92 1.04 1.09 1.11 1.04 1.14 1.29 1.43 1.50 1.50 1.59 1.59 1.59 1.71 1.83 1.91 2.13 2.32 2.36 2.33 2.41
1.11 1.10 1.05 1.06 1.26 1.31 0.93 0.89 1.09 1.30 1.14 0.95 0.88 0.79 0.68 0.64 0.65 0.73 0.73 0.75 0.76 0.78 0.91 0.99 1.09 1.17 1.23 1.31 1.39 1.43 1.48 1.55 1.65 1.68 1.74 1.81 1.98 1.94 2.01 2.27 2.34 2.44 2.59 2.61
1.12 1.15 1.17 1.24 1.34 1.22 1.08 1.21 1.25 1.13 1.18 1.12 0.97 0.96 0.83 0.77 0.70 0.67 0.71 0.78 0.85 0.84 0.85 0.94 1.03 1.14 1.29 1.40 1.49 1.63 1.68 1.69 1.77 1.85 1.91 2.04 2.20 2.33 2.39 2.55 2.66 2.64 2.64 2.64
1.24 1.09 1.25 1.42 1.50 1.39 1.42 1.39 1.31 1.27 1.23 1.10 0.93 0.95 0.91 0.81 0.71 0.71 0.78 0.82 0.80 0.82 0.80 0.82 0.95 1.13 1.28 1.40 1.57 1.77 1.79 1.72 1.83 1.97 2.01 2.15 2.29 2.36 2.44 2.60 2.66 2.69 2.67 2.68
1.45 1.39 1.63 1.83 1.82 1.82 1.82 1.65 1.42 1.28 1.13 1.04 0.94 0.93 0.89 0.85 0.79 0.74 0.77 0.87 0.78 0.72 0.75 0.80 0.88 1.05 1.18 1.20 1.40 1.63 1.78 1.84 1.97 2.06 2.12 2.25 2.40 2.53 2.61 2.52 2.56 2.62 2.65 2.58
1.55 1.67 1.87 2.06 1.90 1.85 1.90 1.67 1.38 1.33 1.33 1.24 1.20 1.19 1.11 1.02 0.98 0.88 0.79 0.81 0.77 0.73 0.78 0.90 0.94 0.98 1.06 1.11 1.28 1.44 1.67 1.84 2.11 2.15 2.18 2.28 2.36 2.50 2.51 2.49 2.39 2.31 2.22 2.20